• In Switzerland
  • List of Countries
  • For 7 days
  • Water Temperature
  • Satellite Maps
  • Weather Map
  • Weather Widgets
  • user-avatar
    Login

    Hourly Weather Townsville

    Today, 19 September, Wednesday

    Time Temperature Precipitation Wind Pressure Humidity
    00:00 +21°C° 0 mm 4 mps 755 mmHg 92%
    01:00 +21°C° 0 mm 4 mps 755 mmHg 93%
    02:00 +21°C° 0 mm 4 mps 755 mmHg 93%
    03:00 +21°C° 0 mm 4 mps 755 mmHg 93%
    04:00 +21°C° 0 mm 4 mps 754 mmHg 94%
    05:00 +21°C° 0.1 mm 4 mps 755 mmHg 92%
    06:00 +21°C° 0.1 mm 4 mps 755 mmHg 91%
    07:00 +22°C° 0.1 mm 4 mps 755 mmHg 89%
    08:00 +23°C° 0 mm 4 mps 755 mmHg 78%
    09:00 +26°C° 0 mm 4 mps 756 mmHg 68%
    10:00 +28°C° 0 mm 5 mps 756 mmHg 58%
    11:00 +29°C° 0 mm 4 mps 755 mmHg 54%
    12:00 +29°C° 0 mm 4 mps 755 mmHg 50%
    13:00 +30°C° 0 mm 4 mps 754 mmHg 46%
    14:00 +30°C° 0 mm 4 mps 754 mmHg 48%
    15:00 +29°C° 0 mm 4 mps 754 mmHg 49%
    16:00 +29°C° 0 mm 4 mps 753 mmHg 50%
    17:00 +27°C° 0 mm 3 mps 754 mmHg 58%
    18:00 +25°C° 0 mm 3 mps 754 mmHg 66%
    19:00 +23°C° 0 mm 2 mps 754 mmHg 73%
    20:00 +21°C° 0 mm 2 mps 754 mmHg 76%
    21:00 +21°C° 0 mm 2 mps 755 mmHg 79%
    22:00 +20°C° 0 mm 2 mps 755 mmHg 81%
    23:00 +20°C° 0 mm 2 mps 755 mmHg 83%

    Tomorrow, 20 September, Thursday

    Time Temperature Precipitation Wind Pressure Humidity
    00:00 +20°C° 0 mm 2 mps 755 mmHg 84%
    01:00 +19°C° 0 mm 2 mps 755 mmHg 85%
    02:00 +19°C° 0 mm 2 mps 754 mmHg 87%
    03:00 +19°C° 0 mm 2 mps 754 mmHg 88%
    04:00 +19°C° 0 mm 2 mps 754 mmHg 90%
    05:00 +19°C° 0 mm 2 mps 754 mmHg 87%
    06:00 +21°C° 0 mm 1 mps 754 mmHg 84%
    07:00 +22°C° 0 mm 1 mps 755 mmHg 81%
    08:00 +25°C° 0 mm 1 mps 755 mmHg 67%
    09:00 +28°C° 0 mm 1 mps 755 mmHg 54%
    10:00 +30°C° 0 mm 2 mps 755 mmHg 41%
    11:00 +32°C° 0 mm 2 mps 755 mmHg 37%
    12:00 +34°C° 0 mm 2 mps 754 mmHg 34%
    13:00 +35°C° 0 mm 3 mps 754 mmHg 30%
    14:00 +34°C° 0 mm 3 mps 753 mmHg 32%
    15:00 +34°C° 0 mm 4 mps 753 mmHg 34%
    16:00 +33°C° 0 mm 4 mps 752 mmHg 36%
    17:00 +29°C° 0 mm 4 mps 753 mmHg 49%
    18:00 +27°C° 0 mm 3 mps 753 mmHg 61%
    19:00 +24°C° 0 mm 2 mps 754 mmHg 74%
    20:00 +23°C° 0 mm 2 mps 754 mmHg 76%
    21:00 +23°C° 0 mm 2 mps 755 mmHg 78%
    22:00 +21°C° 0 mm 2 mps 756 mmHg 80%
    23:00 +21°C° 0 mm 2 mps 756 mmHg 83%

    Day after tomorrow, 21 September, Friday

    Time Temperature Precipitation Wind Pressure Humidity
    00:00 +21°C° 0 mm 2 mps 755 mmHg 85%
    01:00 +20°C° 0 mm 2 mps 755 mmHg 88%
    02:00 +20°C° 0 mm 2 mps 755 mmHg 90%
    03:00 +20°C° 0 mm 2 mps 755 mmHg 91%
    04:00 +20°C° 0 mm 2 mps 755 mmHg 93%
    05:00 +20°C° 0 mm 3 mps 755 mmHg 90%
    06:00 +20°C° 0 mm 3 mps 756 mmHg 87%
    07:00 +21°C° 0 mm 4 mps 757 mmHg 84%
    08:00 +23°C° 0 mm 4 mps 757 mmHg 71%
    09:00 +27°C° 0 mm 4 mps 757 mmHg 57%
    10:00 +29°C° 0 mm 5 mps 757 mmHg 44%
    11:00 +30°C° 0 mm 5 mps 757 mmHg 43%
    12:00 +30°C° 0 mm 6 mps 756 mmHg 41%
    13:00 +32°C° 0 mm 6 mps 756 mmHg 39%
    14:00 +30°C° 0 mm 6 mps 756 mmHg 41%
    15:00 +29°C° 0 mm 7 mps 755 mmHg 42%
    16:00 +29°C° 0 mm 7 mps 755 mmHg 44%
    17:00 +27°C° 0 mm 6 mps 756 mmHg 50%
    18:00 +24°C° 0 mm 6 mps 756 mmHg 56%
    19:00 +22°C° 0 mm 6 mps 757 mmHg 61%
    20:00 +22°C° 0 mm 6 mps 757 mmHg 65%
    21:00 +21°C° 0 mm 6 mps 758 mmHg 68%
    22:00 +20°C° 0 mm 5 mps 758 mmHg 72%
    23:00 +20°C° 0 mm 5 mps 758 mmHg 76%

    22 September, Saturday

    Time Temperature Precipitation Wind Pressure Humidity
    00:00 +19°C° 0 mm 5 mps 758 mmHg 80%
    01:00 +19°C° 0 mm 5 mps 758 mmHg 85%
    02:00 +19°C° 0 mm 6 mps 758 mmHg 87%
    03:00 +17°C° 0 mm 6 mps 757 mmHg 89%
    04:00 +17°C° 0 mm 6 mps 757 mmHg 91%
    05:00 +17°C° 0 mm 6 mps 758 mmHg 90%
    06:00 +19°C° 0 mm 6 mps 758 mmHg 88%
    07:00 +19°C° 0 mm 6 mps 759 mmHg 86%
    08:00 +22°C° 0 mm 6 mps 759 mmHg 74%
    09:00 +24°C° 0 mm 6 mps 759 mmHg 62%
    10:00 +28°C° 0 mm 7 mps 759 mmHg 50%
    11:00 +29°C° 0 mm 7 mps 759 mmHg 47%
    12:00 +30°C° 0 mm 7 mps 758 mmHg 43%
    13:00 +32°C° 0 mm 7 mps 757 mmHg 40%
    14:00 +31°C° 0 mm 8 mps 757 mmHg 44%
    15:00 +29°C° 0 mm 8 mps 756 mmHg 49%
    16:00 +27°C° 0 mm 8 mps 756 mmHg 54%
    17:00 +26°C° 0 mm 8 mps 756 mmHg 60%
    18:00 +24°C° 0 mm 8 mps 757 mmHg 66%
    19:00 +22°C° 0 mm 7 mps 758 mmHg 71%
    20:00 +22°C° 0 mm 7 mps 758 mmHg 74%
    21:00 +21°C° 0 mm 7 mps 759 mmHg 76%
    22:00 +20°C° 0 mm 7 mps 759 mmHg 78%
    23:00 +20°C° 0 mm 6 mps 759 mmHg 80%

    23 September, Sunday

    Time Temperature Precipitation Wind Pressure Humidity
    00:00 +19°C° 0 mm 6 mps 758 mmHg 83%
    01:00 +17°C° 0 mm 5 mps 758 mmHg 85%
    02:00 +17°C° 0 mm 5 mps 758 mmHg 87%
    03:00 +16°C° 0 mm 5 mps 757 mmHg 89%
    04:00 +16°C° 0 mm 5 mps 757 mmHg 90%
    05:00 +16°C° 0 mm 5 mps 757 mmHg 88%
    06:00 +17°C° 0 mm 5 mps 758 mmHg 85%
    07:00 +17°C° 0 mm 5 mps 758 mmHg 83%
    08:00 +21°C° 0 mm 5 mps 758 mmHg 71%
    09:00 +24°C° 0 mm 6 mps 758 mmHg 58%
    10:00 +27°C° 0 mm 6 mps 758 mmHg 46%
    11:00 +28°C° 0 mm 6 mps 757 mmHg 43%
    12:00 +29°C° 0 mm 7 mps 757 mmHg 40%
    13:00 +30°C° 0 mm 7 mps 756 mmHg 37%
    14:00 +30°C° 0 mm 7 mps 756 mmHg 39%
    15:00 +29°C° 0 mm 7 mps 755 mmHg 41%
    16:00 +29°C° 0 mm 8 mps 755 mmHg 42%
    17:00 +27°C° 0 mm 7 mps 755 mmHg 50%
    18:00 +24°C° 0 mm 7 mps 756 mmHg 58%
    19:00 +22°C° 0 mm 6 mps 756 mmHg 66%
    20:00 +22°C° 0 mm 6 mps 757 mmHg 71%
    21:00 +21°C° 0 mm 6 mps 757 mmHg 76%
    22:00 +20°C° 0 mm 6 mps 757 mmHg 80%
    23:00 +20°C° 0 mm 5 mps 757 mmHg 84%

    24 September, Monday

    Time Temperature Precipitation Wind Pressure Humidity
    00:00 +19°C° 0 mm 5 mps 757 mmHg 88%
    01:00 +19°C° 0 mm 4 mps 756 mmHg 92%
    02:00 +18°C° 0 mm 4 mps 756 mmHg 93%
    03:00 +18°C° 0 mm 4 mps 756 mmHg 95%
    04:00 +18°C° 0 mm 4 mps 755 mmHg 96%
    05:00 +18°C° 0 mm 4 mps 756 mmHg 94%
    06:00 +19°C° 0 mm 4 mps 756 mmHg 92%
    07:00 +19°C° 0 mm 4 mps 757 mmHg 90%
    08:00 +22°C° 0 mm 5 mps 757 mmHg 75%
    09:00 +26°C° 0 mm 5 mps 757 mmHg 60%
    10:00 +28°C° 0 mm 6 mps 756 mmHg 44%
    11:00 +29°C° 0 mm 6 mps 756 mmHg 41%
    12:00 +30°C° 0 mm 6 mps 755 mmHg 38%
    13:00 +32°C° 0 mm 7 mps 755 mmHg 35%
    14:00 +30°C° 0 mm 7 mps 754 mmHg 37%
    15:00 +30°C° 0 mm 7 mps 754 mmHg 39%
    16:00 +29°C° 0 mm 7 mps 754 mmHg 42%
    17:00 +27°C° 0 mm 7 mps 754 mmHg 50%
    18:00 +24°C° 0 mm 7 mps 755 mmHg 59%
    19:00 +22°C° 0 mm 6 mps 755 mmHg 68%
    20:00 +22°C° 0 mm 6 mps 755 mmHg 72%
    21:00 +21°C° 0 mm 6 mps 756 mmHg 76%
    22:00 +21°C° 0 mm 5 mps 756 mmHg 81%
    23:00 +20°C° 0 mm 5 mps 756 mmHg 83%
    Show more